Weather Roundup
Issued by NWS

Home | Current Version | Previous Version | Graphics & Text | Print | Product List | Glossary Off
Versions: 1 2 3 4 5 6 7 8 9 10 11 12 13 14 15 16 17 18 19 20 21 22 23 24 25 26 27 28 29 30 31 32 33 34 35 36 37 38 39 40 41 42 43 44 45 46 47 48 49 50

000
NZUS93 KARX 271659
HRRWXR

CURRENT HOURLY OBSERVATIONS ACROSS
MUCH OF THE UPPER MISSISSIPPI VALLEY
NATIONAL WEATHER SERVICE LA CROSSE WI
1200 PM CDT MON MAR 27 2017


...SOUTHEAST MINNESOTA...


CITY           SKY/WX    TMP DP  RH WIND       PRES   REMARKS
ROCHESTER      NOT AVBL
ROCHESTER/MAYO NOT AVBL
WINONA         NOT AVBL
AUSTIN         CLOUDY    39  37  93 N6        29.96S WCI  35
ALBERT LEA     NOT AVBL
DODGE CENTER   NOT AVBL
PRESTON        CLOUDY    42  37  84 NE5       29.95S
OWATONNA       CLOUDY    43  37  81 N5        29.97F
FARIBAULT      CLOUDY    45  39  81 N8        29.98S
$$

...ELSEWHERE IN MINNESOTA...


CITY           SKY/WX    TMP DP  RH WIND       PRES   REMARKS
MINNEAPOLIS    NOT AVBL
INTNL FALLS    NOT AVBL
DULUTH         NOT AVBL
RED WING       CLOUDY    45  37  76 NE5       29.97S
REDWOOD FALLS  NOT AVBL
MANKATO        NOT AVBL
WORTHINGTON    NOT AVBL
FAIRMONT       CLOUDY    45  37  76 N10       29.98S
$$

...SOUTHWEST WISCONSIN...


CITY           SKY/WX    TMP DP  RH WIND       PRES   REMARKS
LA CROSSE      NOT AVBL
PRAIRIE DU CHI CLOUDY    44  42  95 NW7       29.95R FOG
BOSCOBEL       NOT AVBL
LONE ROCK      NOT AVBL
PLATTEVILLE    CLOUDY    46  45  93 NE3       29.94R
FORT MC COY    CLOUDY    42  40  93 NE3       29.96S
MAUSTON-NEW LI CLOUDY    42  41  93 NW5       29.94S FOG
VIROQUA        CLOUDY    42  42 100 N3        29.94S
WIS DELLS      CLOUDY    43  40  89 CALM      29.94R
$$

...ELSEWHERE IN WISCONSIN...


CITY           SKY/WX    TMP DP  RH WIND       PRES   REMARKS
MILWAUKEE      NOT AVBL
MADISON        NOT AVBL
GREEN BAY      NOT AVBL
EAU CLAIRE     NOT AVBL
BLACK RVR FLS  CLOUDY    43  40  91 CALM      29.96R
MEDFORD        CLOUDY    37  34  89 CALM      29.93S
WAUSAU         NOT AVBL
WIS RAPIDS     NOT AVBL
MARSHFIELD     NOT AVBL
RICE LAKE      CLOUDY    41  37  86 CALM      29.98S
$$

...NORTHEAST IOWA...


CITY           SKY/WX    TMP DP  RH WIND       PRES   REMARKS
WATERLOO       NOT AVBL
DUBUQUE        CLOUDY    47  42  83 NE5       29.93R
DECORAH        CLOUDY    43  41  93 NE6       29.93S
MASON CITY     NOT AVBL
CHARLES CITY   CLOUDY    45  43  93 N7        29.96R
OELWEIN        CLOUDY    45  45 100 N5        29.96R
$$

...ELSEWHERE IN IOWA...


CITY           SKY/WX    TMP DP  RH WIND       PRES   REMARKS
DES MOINES     NOT AVBL
IOWA CITY      NOT AVBL
FORT DODGE     CLOUDY    45  37  76 N6        29.97S
MARSHALLTOWN   NOT AVBL
CEDAR RAPIDS   NOT AVBL
$$

...NORTHERN ILLINOIS...


CITY           SKY/WX    TMP DP  RH WIND       PRES   REMARKS
CHICAGO-OHARE  NOT AVBL
CHICAGO-MIDWAY NOT AVBL
MOLINE         CLOUDY    51  44  77 E6        29.93S
ROCKFORD       NOT AVBL
PEORIA         NOT AVBL
$$

NOTE: "FAIR" INDICATES FEW OR NO CLOUDS BELOW 12,000 FEET WITH NO
SIGNIFICANT WEATHER AND/OR OBSTRUCTIONS TO VISIBILITY. WIND
SPEEDS ARE IN MILES-PER-HOUR.




USA.gov is the U.S. government's official web portal to all federal, state and local government web resources and services.